Weather reports worldwide

Advertisment
Moses Lake, wa, United States of America (2074711): temperature & dewpoint: 29.06.2020 07:00:00 - 05.07.2020 07:00:00 (PDT)Moses Lake, wa, United States of America (2074711): wind speed & gusts: 29.06.2020 07:00:00 - 05.07.2020 07:00:00 (PDT)Moses Lake, wa, United States of America (2074711): wind direction: 29.06.2020 07:00:00 - 05.07.2020 07:00:00 (PDT)Moses Lake, wa, United States of America (2074711): reduced air pressure: 29.06.2020 07:00:00 - 05.07.2020 07:00:00 (PDT)Moses Lake, wa, United States of America (2074711): visibility: 29.06.2020 07:00:00 - 05.07.2020 07:00:00 (PDT)Moses Lake, wa, United States of America (2074711): precipitation: 29.06.2020 07:00:00 - 05.07.2020 07:00:00 (PDT)
Date & Time tt [°C] td [°C] ff [km/h] ff [kn] fx [km/h] fx [kn] dd ppp [hPa] vv [km] rr [mm]
05.07.2020 07:00:00 15,0 6,1 0 0 - - N 1018,6 16 -
05.07.2020 06:00:00 12,2 5,0 0 0 - - N 1018,6 16 -
05.07.2020 05:00:00 13,3 5,0 0 0 - - N 1018,2 16 -
05.07.2020 04:00:00 12,2 4,4 8 4 - - NNE 1017,8 16 -
05.07.2020 03:00:00 15,6 4,4 5 3 - - W 1017,6 16 -
05.07.2020 02:00:00 15,6 4,4 9 5 - - NNE 1017,5 16 -
05.07.2020 01:00:00 17,8 3,9 16 9 - - NW 1017,3 16 -
05.07.2020 00:00:00 17,8 3,9 11 6 - - NNW 1017,5 16 -
04.07.2020 23:00:00 20,0 3,3 11 6 - - NNW 1017,2 16 -
04.07.2020 22:00:00 22,8 2,8 9 5 - - NNW 1016,9 16 -
04.07.2020 21:00:00 26,1 4,4 8 4 - - SSW 1015,8 16 -
04.07.2020 20:00:00 27,8 2,2 13 7 - - SW 1015,6 16 -
04.07.2020 19:00:00 28,3 1,7 15 8 - - SW 1015,5 16 -
04.07.2020 18:00:00 28,9 1,7 15 8 - - SW 1015,5 16 -
04.07.2020 17:00:00 28,9 1,7 18 10 - - SW 1016,0 16 -
04.07.2020 16:00:00 28,3 2,8 18 10 - - W 1016,6 16 -
04.07.2020 15:00:00 27,2 3,3 13 7 - - SW 1016,9 16 -
04.07.2020 14:00:00 26,7 3,9 15 8 - - WSW 1017,5 16 -
04.07.2020 13:00:00 26,1 3,9 16 9 - - W 1017,8 16 -
04.07.2020 12:00:00 24,4 3,3 8 4 - - - 1018,1 16 -
04.07.2020 11:00:00 23,9 3,3 11 6 - - SSW 1018,2 16 -
04.07.2020 10:00:00 22,8 2,2 11 6 - - SW 1018,1 16 -
04.07.2020 09:00:00 22,2 2,2 9 5 - - NW 1018,1 16 -
04.07.2020 08:00:00 21,1 2,2 18 10 - - WNW 1017,9 16 -
04.07.2020 07:00:00 17,8 5,0 0 0 - - N 1017,8 16 -
04.07.2020 06:00:00 15,6 3,9 5 3 - - WSW 1017,3 16 -
04.07.2020 05:00:00 16,7 1,1 13 7 - - WNW 1016,6 16 -
04.07.2020 04:00:00 16,1 0,6 15 8 - - WNW 1016,1 16 -
04.07.2020 03:00:00 16,7 5,0 9 5 - - W 1015,9 16 -
04.07.2020 02:00:00 18,3 5,0 13 7 - - W 1015,7 16 -
04.07.2020 01:00:00 18,9 0,6 9 5 - - W 1015,6 16 -
04.07.2020 00:00:00 17,2 2,2 11 6 - - NNW 1015,7 16 -
03.07.2020 23:00:00 20,6 3,9 13 7 - - NNW 1015,3 16 -
03.07.2020 22:00:00 21,1 3,3 21 11 - - NNW 1014,9 16 -
03.07.2020 21:00:00 21,7 4,4 18 10 - - N 1014,4 16 -
03.07.2020 20:00:00 24,4 4,4 28 15 - - NW 1014,1 16 -
03.07.2020 19:00:00 27,2 3,9 29 16 - - NNW 1013,6 16 -
03.07.2020 18:00:00 28,9 1,7 15 8 - - SSW 1013,4 16 -
03.07.2020 17:00:00 29,4 1,7 21 11 - - WSW 1013,6 16 -
03.07.2020 16:00:00 28,9 1,7 18 10 - - SSW 1013,6 16 -
03.07.2020 15:00:00 28,9 2,2 15 8 - - SW 1013,8 16 -
03.07.2020 14:00:00 27,8 4,4 15 8 - - SSW 1013,9 16 -
03.07.2020 13:00:00 26,7 5,6 16 9 - - S 1014,0 16 -
03.07.2020 12:00:00 24,4 5,0 16 9 - - SSW 1014,2 16 -
03.07.2020 11:00:00 22,8 5,6 9 5 - - W 1014,3 16 -
03.07.2020 10:00:00 20,0 5,0 0 0 - - N 1014,5 16 -
03.07.2020 09:00:00 17,2 5,6 0 0 - - N 1014,5 16 -
03.07.2020 08:00:00 14,4 5,0 5 3 - - N 1014,6 16 -
03.07.2020 07:00:00 11,7 5,0 5 3 - - N 1014,0 16 -
03.07.2020 06:00:00 8,9 4,4 5 3 - - N 1013,8 16 -
03.07.2020 05:00:00 10,0 5,6 9 5 - - NNE 1013,3 16 -
03.07.2020 04:00:00 10,6 5,0 8 4 - - N 1013,1 16 -
03.07.2020 03:00:00 11,7 6,1 9 5 - - NNE 1012,4 16 -
03.07.2020 02:00:00 11,7 4,4 9 5 - - N 1012,4 16 -
03.07.2020 01:00:00 16,1 7,2 0 0 - - N 1012,3 16 -
03.07.2020 00:00:00 17,2 7,2 5 3 - - N 1012,1 16 -
02.07.2020 23:00:00 20,0 6,7 0 0 - - N 1012,1 16 -
02.07.2020 22:00:00 22,2 7,2 0 0 - - N 1012,0 16 -
02.07.2020 21:00:00 22,2 7,2 8 4 - - SSE 1011,8 16 -
02.07.2020 20:00:00 25,6 5,6 15 8 - - S 1011,5 16 -
02.07.2020 19:00:00 26,1 4,4 15 8 - - SSE 1011,4 16 -
02.07.2020 18:00:00 26,7 2,2 11 6 - - SSW 1011,5 16 -
02.07.2020 17:00:00 27,2 2,2 21 11 - - WSW 1011,5 16 -
02.07.2020 16:00:00 27,2 1,1 16 9 - - WSW 1011,7 16 -
02.07.2020 15:00:00 26,7 0,0 29 16 - - WSW 1011,8 16 -
02.07.2020 14:00:00 25,6 3,9 26 14 - - SW 1011,9 16 -
02.07.2020 13:00:00 23,9 5,6 18 10 - - SW 1012,3 16 -
02.07.2020 12:00:00 22,8 6,7 16 9 - - S 1012,3 16 -
02.07.2020 11:00:00 21,1 7,2 18 10 - - S 1012,1 16 -
02.07.2020 10:00:00 20,0 6,7 11 6 - - SSW 1011,9 16 -
02.07.2020 09:00:00 18,3 7,2 15 8 - - SSW 1011,9 16 -
02.07.2020 08:00:00 16,1 7,2 11 6 - - S 1011,4 16 -
02.07.2020 07:00:00 15,0 7,2 16 9 - - SSW 1010,7 16 -
02.07.2020 06:00:00 14,4 7,2 16 9 - - SW 1010,3 16 -
02.07.2020 05:00:00 14,4 7,2 18 10 - - SW 1009,8 16 -
02.07.2020 04:00:00 15,0 7,2 13 7 - - SSW 1009,3 16 -
02.07.2020 03:00:00 16,1 7,8 13 7 - - SSW 1009,2 16 -
02.07.2020 02:00:00 16,7 7,8 11 6 - - SSW 1009,1 16 -
02.07.2020 01:00:00 17,2 7,2 11 6 - - SW 1009,0 16 -
02.07.2020 00:00:00 17,2 7,2 13 7 - - WSW 1008,8 16 -
01.07.2020 23:00:00 17,8 6,7 9 5 - - SW 1008,8 16 -
01.07.2020 22:00:00 18,9 5,6 16 9 - - W 1009,0 16 -
01.07.2020 21:00:00 19,4 5,0 21 11 - - WNW 1008,6 16 -
01.07.2020 20:00:00 20,6 4,4 28 15 - - W 1008,0 16 -
01.07.2020 19:00:00 22,8 4,4 28 15 - - W 1007,6 16 -
01.07.2020 18:00:00 23,9 5,0 29 16 - - WSW 1007,2 16 -
01.07.2020 17:00:00 25,0 3,9 29 16 - - WSW 1007,0 16 -
01.07.2020 16:00:00 25,6 3,9 31 17 55 30 SW 1007,3 16 -
01.07.2020 15:00:00 25,6 3,9 21 11 - - SSW 1007,7 16 -
01.07.2020 14:00:00 23,3 4,4 8 4 - - - 1008,5 16 -
01.07.2020 13:00:00 22,8 4,4 18 10 - - SW 1008,7 16 -
01.07.2020 12:00:00 22,8 4,4 22 12 - - SW 1009,1 16 -
01.07.2020 11:00:00 20,6 5,0 0 0 - - N 1009,3 16 -
01.07.2020 10:00:00 18,9 5,6 11 6 - - S 1009,8 16 -
01.07.2020 09:00:00 17,8 6,1 8 4 - - - 1009,7 16 -
01.07.2020 08:00:00 16,1 6,7 13 7 - - W 1009,5 16 -
01.07.2020 07:00:00 14,4 6,1 13 7 - - WSW 1009,3 16 -
01.07.2020 06:00:00 14,4 6,7 13 7 - - SW 1009,1 16 -
01.07.2020 05:00:00 15,0 6,7 13 7 - - SW 1008,7 16 -
01.07.2020 04:00:00 15,0 6,7 11 6 - - SW 1008,4 16 -
01.07.2020 03:00:00 15,6 6,1 15 8 - - SW 1008,6 16 -
01.07.2020 02:00:00 17,2 3,9 0 0 - - N 1008,2 16 -
01.07.2020 01:00:00 17,8 3,3 13 7 - - W 1007,9 16 -
01.07.2020 00:00:00 17,8 3,3 11 6 - - WNW 1008,0 16 -
30.06.2020 23:00:00 18,9 3,3 18 10 - - W 1008,1 16 -
30.06.2020 22:00:00 18,9 2,8 21 11 - - W 1007,8 16 -
30.06.2020 21:00:00 20,6 2,8 29 16 - - WNW 1007,2 16 -
30.06.2020 20:00:00 22,2 2,8 34 18 55 30 W 1006,9 16 -
30.06.2020 19:00:00 25,0 1,1 37 20 52 28 WNW 1006,5 16 -
30.06.2020 18:00:00 26,7 2,2 29 16 - - W 1006,1 16 -
30.06.2020 17:00:00 - - - - - - - - - -
30.06.2020 16:00:00 28,3 5,6 28 15 48 26 WSW 1006,3 16 -
30.06.2020 15:00:00 27,2 6,7 29 16 48 26 SW 1006,2 16 -
30.06.2020 14:00:00 27,2 7,2 21 11 - - WSW 1006,7 16 -
30.06.2020 13:00:00 25,6 6,7 15 8 - - S 1007,2 16 -
30.06.2020 12:00:00 25,6 6,7 21 11 - - SW 1007,7 16 -
30.06.2020 11:00:00 24,4 6,7 24 13 - - SW 1007,8 16 -
30.06.2020 10:00:00 25,0 8,3 28 15 - - WSW 1007,8 16 -
30.06.2020 09:00:00 21,7 7,2 5 3 - - - 1008,3 16 -
30.06.2020 08:00:00 21,1 8,9 8 4 - - W 1008,3 16 -
30.06.2020 07:00:00 17,8 9,4 5 3 - - W 1008,2 16 -
30.06.2020 06:00:00 14,4 8,9 8 4 - - WSW 1008,0 16 -
30.06.2020 05:00:00 16,7 8,9 8 4 - - WSW 1007,7 16 -
30.06.2020 04:00:00 14,4 9,4 8 4 - - WNW 1007,7 16 -
30.06.2020 03:00:00 17,2 9,4 5 3 - - S 1007,6 16 -
30.06.2020 02:00:00 18,3 8,9 5 3 - - ESE 1007,3 16 -
30.06.2020 01:00:00 18,3 9,4 11 6 - - NE 1007,5 16 -
30.06.2020 00:00:00 19,4 10,6 13 7 - - NNE 1007,0 16 -
29.06.2020 23:00:00 21,7 11,1 5 3 - - - 1007,1 16 -
29.06.2020 22:00:00 21,7 10,6 11 6 - - SE 1007,0 16 -
29.06.2020 21:00:00 22,2 12,2 18 10 - - ESE 1006,9 16 0,0
29.06.2020 20:00:00 25,6 7,8 31 17 - - NW 1006,4 16 -
29.06.2020 19:00:00 29,4 5,6 15 8 - - SW 1005,5 16 -
29.06.2020 18:00:00 30,6 5,6 13 7 - - SSW 1006,0 16 -
29.06.2020 17:00:00 27,2 4,4 28 15 - - WSW 1005,9 16 -
29.06.2020 16:00:00 30,6 3,3 5 3 - - NE 1006,9 16 -
29.06.2020 15:00:00 31,1 5,0 9 5 - - - 1007,2 16 -
29.06.2020 14:00:00 31,1 5,0 15 8 - - NNW 1007,5 16 -
29.06.2020 13:00:00 29,4 5,0 15 8 - - ENE 1008,1 16 -
29.06.2020 12:00:00 27,8 5,0 8 4 - - - 1008,8 16 -
29.06.2020 11:00:00 27,8 6,1 18 10 - - N 1009,1 16 -
29.06.2020 10:00:00 26,1 7,2 26 14 - - N 1009,4 16 -
29.06.2020 09:00:00 22,8 7,8 24 13 - - N 1009,9 16 -
29.06.2020 08:00:00 23,3 8,3 28 15 - - N 1009,5 16 -
29.06.2020 07:00:00 20,0 8,9 18 10 - - NNW 1009,2 16 -

tt = temperature
td = dewpoint
ff = wind speed
fx = gusts
dd = wind direction
ppp = reduced air pressure
vv = visibility
rr = precipitation

Next stations